SP5AP-3 Weather Reports


Display with metric or nautical units.
time (UTC)temp
F
wind
direction
speed
MPH
gust
MPH
rain 1hr
in
rain 24hr
in
rain mn
in
humidity
%
barometer
mb
20260905045020 60 266 0.0 1.0 0.00 0.13 0.00 8 1008.0
20260905044520 60 204 0.0 1.0 0.00 0.13 0.00 8 1008.1
20260905044019 59 350 0.0 1.0 0.00 0.13 0.00 8 1007.7
20260905043519 59 0 0.0 0.0 0.00 0.13 0.00 8 1007.9
20260905043019 59 0 0.0 0.0 0.00 0.13 0.00 8 1008.1
20260905042518 59 0 0.0 0.0 0.00 0.13 0.00 8 1007.7
20260905042018 59 0 0.0 0.0 0.00 0.13 0.00 8 1007.6
20260905041518 59 265 1.0 2.0 0.00 0.13 0.00 8 1007.5
20260905041017 59 0 0.0 0.0 0.00 0.13 0.00 8 1007.4
20260905040517 59 0 0.0 0.0 0.00 0.13 0.00 9 1007.3
20260905040017 59 294 0.0 1.0 0.00 0.13 0.00 9 1007.3
20260905035516 59 0 0.0 0.0 0.00 0.13 0.00 9 1007.3
20260905035016 59 0 0.0 0.0 0.00 0.13 0.00 9 1007.2
20260905034516 59 0 0.0 0.0 0.00 0.13 0.00 9 1006.8
20260905034015 59 0 0.0 0.0 0.00 0.13 0.00 9 1006.9
20260905033515 59 0 0.0 0.0 0.00 0.13 0.00 9 1006.5
20260905033015 60 0 0.0 0.0 0.00 0.13 0.00 8 1006.5
20260905032514 61 225 1.0 2.0 0.00 0.13 0.00 8 1006.4
20260905032014 62 0 0.0 0.0 0.00 0.13 0.00 8 1006.2
20260905031514 62 240 4.0 5.0 0.00 0.13 0.00 8 1005.6
20260905031013 62 0 0.0 0.0 0.00 0.13 0.00 8 1005.8
20260905030513 62 267 2.0 2.0 0.00 0.13 0.00 8 1005.9
20260905030013 62 0 0.0 0.0 0.00 0.13 0.00 8 1006.1
20260905025512 62 210 0.0 2.0 0.00 0.13 0.00 8 1005.9
20260905025012 62 226 3.0 4.0 0.00 0.13 0.00 8 1005.9
20260905024512 62 310 0.0 1.0 0.00 0.13 0.00 8 1005.6
20260905024011 62 0 0.0 0.0 0.00 0.13 0.00 8 1005.9
20260905023511 62 147 0.0 1.0 0.00 0.13 0.00 8 1005.8
20260905023011 62 0 0.0 0.0 0.00 0.13 0.00 8 1005.7
20260905022510 62 0 0.0 0.0 0.00 0.13 0.00 8 1006.0
20260905022010 63 0 0.0 0.0 0.00 0.13 0.00 8 1005.8
20260905021510 63 352 0.0 1.0 0.00 0.13 0.00 8 1005.8
20260905021010 63 0 0.0 0.0 0.00 0.13 0.00 8 1005.5
20260905020509 63 346 1.0 2.0 0.00 0.13 0.00 8 1005.6
20260905020009 63 354 1.0 2.0 0.00 0.13 0.00 8 1005.6
20260905015508 63 2 0.0 1.0 0.00 0.13 0.00 8 1005.2
20260905015008 63 258 2.0 2.0 0.00 0.13 0.00 8 1005.4
20260905014508 63 169 4.0 8.0 0.00 0.13 0.00 8 1005.2
20260905014007 63 6 0.0 1.0 0.00 0.13 0.00 8 1005.3
20260905013507 63 0 0.0 0.0 0.00 0.13 0.00 8 1005.2
20260905013007 63 0 0.0 0.0 0.00 0.13 0.00 8 1005.1
20260905012507 64 229 1.0 3.0 0.00 0.13 0.00 8 1005.2
20260905012006 64 343 0.0 1.0 0.00 0.13 0.00 8 1005.0
20260905011506 64 262 0.0 2.0 0.00 0.13 0.00 8 1005.3
20260905011006 64 256 1.0 2.0 0.00 0.13 0.00 8 1004.9
20260905010005 64 290 2.0 3.0 0.00 0.13 0.00 8 1004.9
20260905005505 64 8 0.0 1.0 0.00 0.13 0.00 8 1004.7
20260905005004 64 342 1.0 2.0 0.00 0.13 0.00 8 1004.7
20260905004504 64 293 1.0 1.0 0.00 0.13 0.00 9 1004.6
20260905004004 64 57 0.0 1.0 0.00 0.13 0.00 9 1004.3
20260905003503 64 359 1.0 3.0 0.00 0.13 0.00 9 1004.6
20260905003003 64 245 1.0 1.0 0.00 0.13 0.00 9 1004.6
20260905002502 64 97 1.0 3.0 0.00 0.13 0.00 9 1004.2
20260905002002 64 0 0.0 0.0 0.00 0.13 0.00 9 1004.4
20260905001502 64 324 0.0 1.0 0.00 0.13 0.00 9 1004.2
20260905001002 64 15 0.0 1.0 0.00 0.13 0.00 9 1004.2
20260905000501 64 5 0.0 2.0 0.00 0.13 0.00 9 1004.4
20260905000001 64 279 1.0 2.0 0.00 0.13 0.00 9 1004.5
20260904235500 64 163 0.0 1.0 0.00 0.13 0.00 9 1004.2
20260904235000 64 1 0.0 1.0 0.00 0.13 0.00 9 1004.4
20260904234500 64 354 0.0 1.0 0.00 0.13 0.00 9 1004.4
20260904233959 64 12 0.0 1.0 0.00 0.13 0.00 9 1004.2
20260904233459 64 11 0.0 3.0 0.00 0.13 0.00 9 1004.2
20260904232959 64 0 0.0 0.0 0.00 0.13 0.00 9 1004.2
20260904232458 64 0 0.0 0.0 0.00 0.13 0.00 9 1004.2
20260904231958 64 341 0.0 1.0 0.00 0.13 0.00 9 1004.3
20260904231458 64 348 0.0 1.0 0.00 0.13 0.00 9 1004.4
20260904230957 64 0 0.0 0.0 0.00 0.13 0.00 9 1004.6
20260904230457 64 348 0.0 1.0 0.00 0.13 0.00 9 1004.6
20260904225957 64 321 0.0 1.0 0.00 0.13 0.00 9 1004.5
20260904225456 64 0 0.0 0.0 0.00 0.15 0.00 9 1004.2
20260904224956 64 0 0.0 0.0 0.00 0.15 0.00 9 1003.9
20260904224456 63 0 0.0 0.0 0.00 0.15 0.00 9 1004.1
20260904223955 63 0 0.0 0.0 0.00 0.15 0.00 9 1004.3
20260904223455 63 0 0.0 0.0 0.00 0.15 0.00 9 1004.1
20260904222955 63 1 0.0 1.0 0.00 0.15 0.00 9 1003.8
20260904222454 63 0 0.0 0.0 0.00 0.15 0.00 9 1003.8
20260904221954 63 21 0.0 1.0 0.00 0.15 0.00 9 1003.7
20260904221454 63 263 0.0 1.0 0.00 0.15 0.00 9 1003.9
20260904220953 63 344 0.0 1.0 0.00 0.15 0.00 9 1003.9
20260904220453 63 0 0.0 0.0 0.00 0.15 0.00 9 1003.9
20260904215953 63 13 0.0 1.0 0.00 0.15 0.15 9 1004.0
20260904215452 63 0 0.0 0.0 0.00 0.15 0.15 9 1003.7
20260904214952 63 65 0.0 1.0 0.00 0.15 0.15 9 1004.2
20260904214452 63 199 0.0 1.0 0.00 0.15 0.15 9 1003.7
20260904213951 63 329 1.0 1.0 0.00 0.15 0.15 9 1004.1
20260904213451 63 311 1.0 1.0 0.00 0.15 0.15 9 1003.9
20260904212951 63 9 1.0 2.0 0.00 0.15 0.15 9 1003.7
20260904212450 63 232 1.0 2.0 0.00 0.15 0.15 9 1003.9
20260904211950 63 12 0.0 1.0 0.00 0.15 0.15 9 1003.6
20260904211450 63 0 0.0 0.0 0.00 0.15 0.15 9 1003.3
20260904210949 63 0 0.0 0.0 0.01 0.15 0.15 9 1003.8
20260904210449 63 254 3.0 5.0 0.02 0.15 0.15 9 1003.8
20260904205949 63 335 0.0 1.0 0.02 0.15 0.15 9 1004.1
20260904205448 63 351 0.0 1.0 0.02 0.15 0.15 9 1003.6
20260904204948 64 349 1.0 1.0 0.05 0.15 0.15 9 1003.7
20260904204448 64 21 1.0 2.0 0.07 0.15 0.15 9 1003.8
20260904203947 64 66 1.0 2.0 0.09 0.15 0.15 9 1003.4
20260904203447 64 349 0.0 1.0 0.09 0.15 0.15 9 1003.7
20260904202947 64 7 1.0 2.0 0.10 0.15 0.15 9 1003.6
20260904202446 64 0 0.0 0.0 0.11 0.15 0.15 9 1003.4
20260904201946 65 3 0.0 1.0 0.11 0.15 0.15 9 1003.1
20260904201446 65 24 1.0 2.0 0.10 0.14 0.14 9 1003.1
20260904200945 66 340 0.0 1.0 0.09 0.13 0.13 9 1003.0
20260904200445 66 333 1.0 2.0 0.09 0.13 0.13 9 1003.0
20260904195945 67 273 2.0 3.0 0.09 0.13 0.13 9 1003.2
20260904195444 67 328 0.0 1.0 0.09 0.13 0.13 9 1003.3
20260904194944 68 347 1.0 3.0 0.05 0.09 0.09 9 1002.9
20260904194444 68 6 0.0 1.0 0.04 0.07 0.07 8 1002.6
20260904193943 68 243 0.0 2.0 0.02 0.06 0.06 8 1002.3
20260904193443 69 231 1.0 2.0 0.02 0.05 0.05 8 1002.2
20260904192943 70 346 0.0 1.0 0.00 0.04 0.04 8 1001.9
20260904192442 71 0 0.0 0.0 0.00 0.03 0.03 7 1002.0
20260904191942 72 20 0.0 1.0 0.00 0.03 0.03 7 1002.1
20260904191442 72 6 1.0 2.0 0.00 0.03 0.03 7 1001.9
20260904190941 72 225 2.0 3.0 0.00 0.03 0.03 7 1001.9
20260904190441 72 18 2.0 3.0 0.00 0.03 0.03 7 1002.1
20260904185941 73 252 2.0 3.0 0.00 0.03 0.03 7 1002.1
20260904185440 73 17 0.0 1.0 0.00 0.03 0.03 6 1002.4
20260904184940 72 251 2.0 3.0 0.00 0.03 0.03 7 1002.0
20260904184440 72 15 0.0 1.0 0.00 0.03 0.03 7 1002.1
20260904183939 72 11 1.0 3.0 0.00 0.03 0.03 7 1002.2
20260904183439 72 236 1.0 3.0 0.00 0.03 0.03 7 1002.3
20260904182939 71 17 0.0 1.0 0.00 0.03 0.03 7 1002.4
20260904182438 71 297 1.0 2.0 0.00 0.03 0.03 7 1002.5
20260904181938 71 213 1.0 2.0 0.00 0.03 0.03 7 1002.6
20260904181438 71 9 0.0 1.0 0.00 0.03 0.03 7 1002.5
20260904180937 71 237 3.0 5.0 0.00 0.03 0.03 7 1002.5
20260904180437 71 0 0.0 0.0 0.00 0.03 0.03 7 1002.6
20260904175937 71 10 0.0 3.0 0.00 0.03 0.03 7 1002.5
20260904175436 71 222 1.0 2.0 0.00 0.03 0.03 7 1003.1
20260904174936 71 235 2.0 3.0 0.00 0.03 0.03 7 1003.0
20260904174436 71 33 0.0 1.0 0.00 0.03 0.03 7 1003.1
20260904173935 71 239 1.0 2.0 0.00 0.03 0.03 7 1003.2
20260904173435 70 339 1.0 2.0 0.00 0.03 0.03 7 1003.4
20260904172935 70 29 0.0 1.0 0.00 0.03 0.03 7 1003.2
20260904172434 70 11 1.0 4.0 0.00 0.03 0.03 7 1003.0
20260904171934 71 0 0.0 0.0 0.00 0.03 0.03 7 1003.3
20260904171434 71 298 1.0 2.0 0.00 0.03 0.03 7 1003.4
20260904170933 71 258 0.0 1.0 0.00 0.03 0.03 7 1003.7
20260904170433 71 178 0.0 2.0 0.00 0.03 0.03 7 1003.6
20260904165933 71 41 0.0 1.0 0.00 0.03 0.03 7 1003.8
20260904165432 71 330 1.0 2.0 0.00 0.03 0.03 7 1004.0
20260904164932 71 0 0.0 0.0 0.00 0.03 0.03 7 1004.2
20260904164432 71 352 1.0 2.0 0.00 0.03 0.03 7 1004.2
20260904163931 71 0 0.0 0.0 0.00 0.03 0.03 7 1004.3
20260904163431 71 287 0.0 1.0 0.00 0.03 0.03 7 1004.6
20260904162931 71 304 0.0 1.0 0.00 0.03 0.03 7 1004.6
20260904162431 71 333 1.0 2.0 0.00 0.03 0.03 6 1004.5
20260904161930 71 9 0.0 1.0 0.00 0.03 0.03 6 1004.8
20260904161430 71 5 1.0 2.0 0.00 0.03 0.03 6 1004.9
20260904160930 71 243 1.0 3.0 0.00 0.03 0.03 6 1005.0
20260904160429 71 163 0.0 1.0 0.00 0.03 0.03 6 1005.0
20260904155929 71 22 0.0 1.0 0.00 0.03 0.03 6 1004.9
20260904155429 72 45 0.0 1.0 0.00 0.03 0.03 6 1005.0
20260904154928 72 221 1.0 2.0 0.00 0.03 0.03 6 1005.1
20260904154428 72 291 0.0 1.0 0.00 0.03 0.03 6 1005.1
20260904153928 72 215 0.0 1.0 0.00 0.03 0.03 6 1005.1
20260904153427 72 248 1.0 2.0 0.00 0.03 0.03 6 1005.1
20260904152927 72 349 0.0 1.0 0.00 0.03 0.03 6 1005.3
20260904152427 72 6 0.0 1.0 0.00 0.03 0.03 6 1005.2
20260904151926 72 0 0.0 0.0 0.00 0.03 0.03 6 1005.3
20260904151426 72 0 0.0 0.0 0.00 0.03 0.03 6 1005.3
20260904150925 72 3 0.0 1.0 0.00 0.03 0.03 6 1005.4
20260904150425 72 0 0.0 0.0 0.00 0.03 0.03 6 1005.6
20260904145925 72 0 0.0 0.0 0.00 0.03 0.03 6 1005.7
20260904145425 72 200 2.0 3.0 0.00 0.03 0.03 6 1005.9
20260904144924 72 235 1.0 2.0 0.00 0.03 0.03 6 1005.9
20260904144424 72 9 0.0 1.0 0.00 0.03 0.03 6 1006.1
20260904143924 72 280 0.0 1.0 0.00 0.03 0.03 6 1005.9
20260904143423 72 3 0.0 1.0 0.00 0.03 0.03 6 1006.3
20260904142923 72 2 1.0 1.0 0.00 0.03 0.03 6 1006.4
20260904142423 72 73 1.0 2.0 0.00 0.03 0.03 6 1006.6
20260904141922 72 0 0.0 0.0 0.00 0.03 0.03 6 1006.8
20260904141422 72 210 1.0 3.0 0.00 0.03 0.03 6 1006.9
20260904140922 72 20 1.0 3.0 0.00 0.03 0.03 6 1006.9
20260904140421 72 3 1.0 2.0 0.00 0.03 0.03 6 1007.0
20260904135921 72 300 0.0 2.0 0.00 0.03 0.03 6 1007.2
20260904135421 72 0 0.0 0.0 0.00 0.03 0.03 6 1007.2
20260904134920 72 231 2.0 3.0 0.00 0.03 0.03 6 1007.5
20260904134420 72 64 0.0 1.0 0.00 0.03 0.03 6 1007.5
20260904133920 72 347 1.0 3.0 0.00 0.03 0.03 6 1007.3
20260904133419 71 0 0.0 0.0 0.00 0.03 0.03 6 1007.7
20260904132919 71 341 0.0 2.0 0.00 0.03 0.03 6 1007.5
20260904132419 71 18 0.0 1.0 0.00 0.03 0.03 6 1007.4
20260904131918 72 45 0.0 1.0 0.00 0.03 0.03 6 1007.7
20260904131418 72 122 1.0 2.0 0.00 0.03 0.03 6 1008.0
20260904130918 71 0 0.0 0.0 0.00 0.03 0.03 6 1008.0
20260904130417 72 32 0.0 1.0 0.00 0.03 0.03 6 1008.4
20260904125917 72 338 0.0 1.0 0.00 0.03 0.03 6 1008.3
20260904125417 71 357 0.0 1.0 0.00 0.03 0.03 6 1008.4
20260904124916 71 41 0.0 1.0 0.00 0.03 0.03 6 1008.3
20260904124416 71 329 0.0 1.0 0.00 0.03 0.03 6 1008.4
20260904123916 71 146 0.0 2.0 0.00 0.03 0.03 6 1008.4
20260904123415 71 0 0.0 0.0 0.00 0.03 0.03 6 1008.4
20260904122915 71 0 0.0 0.0 0.00 0.03 0.03 6 1008.7
20260904122415 70 335 0.0 1.0 0.00 0.03 0.03 6 1009.0
20260904121914 70 256 4.0 8.0 0.00 0.03 0.03 6 1008.6
20260904121414 70 0 0.0 0.0 0.00 0.03 0.03 6 1009.1
20260904120914 71 251 1.0 2.0 0.00 0.03 0.03 6 1008.8
20260904120413 70 319 1.0 1.0 0.00 0.03 0.03 6 1009.0
20260904115913 70 321 0.0 1.0 0.00 0.03 0.03 6 1009.0
20260904115413 71 180 2.0 4.0 0.00 0.03 0.03 6 1009.1
20260904114912 70 288 0.0 1.0 0.00 0.03 0.03 6 1009.0
20260904114412 71 0 0.0 0.0 0.00 0.03 0.03 6 1009.2
20260904113912 71 224 3.0 4.0 0.00 0.03 0.03 6 1009.2
20260904113411 71 0 0.0 0.0 0.00 0.03 0.03 6 1009.4
20260904112911 71 0 0.0 0.0 0.00 0.03 0.03 6 1009.6
20260904112411 71 218 3.0 5.0 0.00 0.03 0.03 6 1009.6
20260904111910 72 0 0.0 0.0 0.00 0.03 0.03 6 1009.3
20260904111410 72 0 0.0 0.0 0.00 0.03 0.03 6 1009.3
20260904110910 71 21 1.0 1.0 0.00 0.03 0.03 6 1009.6
20260904110409 71 354 1.0 2.0 0.00 0.03 0.03 6 1009.7
20260904105909 71 260 0.0 2.0 0.00 0.03 0.03 6 1009.8
20260904105409 70 0 0.0 0.0 0.00 0.03 0.03 7 1009.8
20260904104908 70 0 0.0 0.0 0.00 0.03 0.03 7 1009.8
20260904104408 71 14 0.0 1.0 0.00 0.03 0.03 6 1009.8
20260904103908 70 0 0.0 0.0 0.00 0.03 0.03 7 1010.2
20260904103407 70 357 1.0 2.0 0.00 0.03 0.03 7 1009.9
20260904102907 70 0 0.0 0.0 0.00 0.03 0.03 7 1010.1
20260904102407 70 326 0.0 1.0 0.00 0.03 0.03 7 1010.2
20260904101906 70 317 0.0 1.0 0.00 0.03 0.03 7 1010.0
20260904101406 69 7 0.0 2.0 0.00 0.03 0.03 7 1010.0
20260904100906 70 30 0.0 1.0 0.00 0.03 0.03 7 1010.1
20260904100405 69 259 1.0 2.0 0.00 0.03 0.03 7 1010.2
20260904095905 69 0 0.0 0.0 0.00 0.03 0.03 7 1010.2
20260904095405 69 313 1.0 2.0 0.00 0.03 0.03 7 1010.4
20260904094904 68 331 1.0 2.0 0.00 0.03 0.03 7 1010.2
20260904094404 68 0 0.0 0.0 0.00 0.03 0.03 7 1010.3
20260904093904 68 348 0.0 1.0 0.00 0.03 0.03 7 1010.3
20260904093403 68 313 1.0 1.0 0.00 0.03 0.03 7 1010.5
20260904092903 68 4 0.0 1.0 0.00 0.03 0.03 7 1010.6
20260904092403 68 279 1.0 2.0 0.00 0.03 0.03 7 1010.4
20260904091902 68 242 0.0 1.0 0.00 0.03 0.03 7 1010.6
20260904091402 67 356 1.0 3.0 0.00 0.03 0.03 8 1010.6
20260904090902 67 342 2.0 3.0 0.00 0.03 0.03 7 1010.6
20260904090401 67 295 0.0 1.0 0.00 0.03 0.03 8 1010.8
20260904085901 67 246 0.0 1.0 0.00 0.03 0.03 8 1011.0
20260904085401 67 0 0.0 0.0 0.00 0.03 0.03 8 1010.8
20260904084900 67 345 0.0 1.0 0.00 0.03 0.03 8 1010.9
20260904084400 66 0 0.0 0.0 0.00 0.03 0.03 8 1010.8
20260904083900 67 137 1.0 2.0 0.00 0.03 0.03 8 1010.6
20260904083359 67 340 0.0 1.0 0.00 0.03 0.03 8 1010.6
20260904082859 67 42 2.0 3.0 0.00 0.03 0.03 8 1010.6
20260904082359 66 233 4.0 5.0 0.00 0.03 0.03 8 1011.0
20260904081858 66 313 0.0 1.0 0.00 0.03 0.03 8 1011.0
20260904081358 66 265 1.0 1.0 0.00 0.03 0.03 8 1010.9
20260904080858 66 0 0.0 0.0 0.00 0.03 0.03 8 1010.8
20260904080357 65 356 0.0 1.0 0.00 0.03 0.03 8 1011.1
20260904075857 65 357 0.0 2.0 0.00 0.03 0.03 8 1011.0
20260904075357 65 359 0.0 1.0 0.00 0.03 0.03 8 1011.0
20260904074856 64 86 0.0 1.0 0.00 0.03 0.03 8 1011.0
20260904074356 65 190 1.0 2.0 0.00 0.03 0.03 8 1010.8
20260904073856 65 0 0.0 0.0 0.00 0.03 0.03 8 1010.8
20260904073355 65 10 1.0 3.0 0.00 0.03 0.03 8 1010.6
20260904072855 64 347 2.0 3.0 0.00 0.03 0.03 8 1010.6
20260904072355 64 359 0.0 1.0 0.00 0.03 0.03 8 1010.7
20260904071854 64 334 0.0 1.0 0.00 0.03 0.03 8 1010.7
20260904071354 64 226 3.0 4.0 0.00 0.03 0.03 8 1010.7
20260904070854 64 333 1.0 2.0 0.00 0.03 0.03 8 1011.0
20260904070353 64 2 0.0 1.0 0.00 0.03 0.03 8 1010.9
20260904065853 63 74 0.0 1.0 0.00 0.03 0.03 8 1010.7
20260904065353 63 0 0.0 0.0 0.00 0.03 0.03 8 1011.2
20260904064852 63 266 0.0 1.0 0.00 0.03 0.03 8 1011.0
20260904064352 63 0 0.0 0.0 0.00 0.03 0.03 9 1011.1
20260904063852 63 356 0.0 1.0 0.00 0.03 0.03 9 1011.1
20260904063351 63 17 0.0 1.0 0.01 0.03 0.03 9 1011.2
20260904062851 63 0 0.0 0.0 0.01 0.03 0.03 9 1011.2
20260904062351 62 279 1.0 1.0 0.01 0.03 0.03 9 1011.0
20260904061850 62 331 0.0 1.0 0.01 0.03 0.03 9 1011.3
20260904061350 62 7 0.0 1.0 0.01 0.03 0.03 9 1011.2
20260904060850 62 32 0.0 1.0 0.01 0.03 0.03 9 1011.2
20260904060349 62 25 0.0 1.0 0.01 0.03 0.03 9 1011.2
20260904055849 62 4 0.0 1.0 0.01 0.03 0.03 9 1011.4
20260904055349 62 348 1.0 1.0 0.01 0.03 0.03 9 1011.1
20260904054848 61 0 0.0 0.0 0.01 0.03 0.03 9 1011.2
20260904054348 61 232 1.0 2.0 0.01 0.03 0.03 9 1011.2
20260904053848 62 16 1.0 2.0 0.01 0.03 0.03 9 1011.2
20260904053347 62 0 0.0 0.0 0.00 0.02 0.02 9 1011.3
20260904052847 61 326 1.0 1.0 0.00 0.02 0.02 9 1011.2
20260904052347 62 237 2.0 2.0 0.00 0.02 0.02 9 1011.2
20260904051846 61 0 0.0 0.0 0.00 0.02 0.02 9 1011.2
20260904051346 62 0 0.0 0.0 0.00 0.02 0.02 9 1011.0
20260904050846 62 341 0.0 1.0 0.00 0.02 0.02 9 1011.1
20260904050345 62 236 1.0 2.0 0.00 0.02 0.02 8 1011.2
20260904045845 62 0 0.0 0.0 0.00 0.02 0.02 8 1010.9
20260904045345 62 0 0.0 0.0 0.00 0.02 0.02 8 1011.2